Regional Weather Roundup
Issued by NWS

Home | Current Version | Previous Version | Text Only | Print | Product List | Glossary On
Versions: 1 2 3 4 5 6 7 8 9 10 11 12 13 14 15 16 17 18 19 20 21 22 23 24 25 26 27 28 29 30 31 32 33 34 35 36 37 38 39 40 41 42 43 44 45 46 47 48 49 50
000
ASUS44 KLIX 021110
RWRLA
LOUISIANA WEATHER ROUNDUP
NATIONAL WEATHER SERVICE NEW ORLEANS LA
500 AM CST MON MAR 02 2015

NOTE: "FAIR" INDICATES FEW OR NO CLOUDS BELOW 12,000 FEET WITH NO
      SIGNIFICANT WEATHER AND/OR OBSTRUCTIONS TO VISIBILITY.
      SKY/WX - SKY CONDITION AND SIGNIFICANT WEATHER.
      TMP - AIR TEMPERATURE.    DP   - DEWPOINT TEMPERATURE.
      RH  - RELATIVE HUMIDITY.  PRES - PRESSURE.
      HX  - HEAT INDEX.         WCI  - WIND CHILL INDEX.

*  THESE STATIONS ARE NOT NWS OR FAA STATIONS AND ARE NOT UNDER
   NWS QUALITY CONTROL.

LAZ040-048-061>063-065-066-069-021200-
SOUTHEAST LOUISIANA

CITY           SKY/WX    TMP DP  RH WIND       PRES   REMARKS
N.O. AUDUBON   NOT AVBL
N.O. INTL ARPT CLOUDY    60  58  92 CALM      30.25S
N.O. LAKEFRONT FOG       57  55  93 E6        30.26S VSB 3/4
SLIDELL        CLOUDY    60  60 100 SE3       30.25F
BATON ROUGE    CLOUDY    61  60  97 E7        30.24S
BOOTHVILLE     FOG       62  62 100 E5        30.25R VSB 1/4
BELLE CHASSE   CLOUDY    62  58  86 NE5       30.25R
BOGALUSA*        N/A     62  59  90 S3        30.26S FOG
GALLIANO*      CLOUDY    53  53  99 CALM      30.25R
NEW ROADS*     LGT RAIN  61  60  98 CALM      30.24R
GONZALES*      CLOUDY    60  60 100 CALM      30.24S
HAMMOND*       CLOUDY    61  59  94 SE6       30.26S
HOUMA*         CLOUDY    60  60  98 NE3       30.24R
PORT FOURCHON* FOG       61  61 100 NE7       30.27S VSB 1/4

$$

LAZ041-044-053-054-021200-
SOUTHWEST LOUISIANA

CITY           SKY/WX    TMP DP  RH WIND       PRES   REMARKS
LAKE CHARLES   CLOUDY    63  62  97 NE5       30.20S FOG
LAFAYETTE      CLOUDY    62  62 100 VRB3      30.22S FOG
PATTERSON      CLOUDY    61  59  94 NE5       30.24S
SALT POINT       N/A     62  62 100 E5        30.20F
NEW IBERIA     FOG       63  62  97 SE6       30.22F VSB 1/2
CHENAULT AIRPK NOT AVBL

$$

LAZ027-028-021200-
CENTRAL LOUISIANA

CITY           SKY/WX    TMP DP  RH WIND       PRES   REMARKS
FORT POLK      RAIN      46  46 100 N7        30.25R VSB 1/2
ALEXANDRIA INT CLOUDY    46  46 100 N5        30.26S FOG
ALEXANDRIA     CLOUDY    46  46 100 CALM      30.27S

$$

LAZ001-002-021200-
NORTHWEST LOUISIANA

CITY           SKY/WX    TMP DP  RH WIND       PRES   REMARKS
SHREVEPORT     DRIZZLE   43  42  97 NE8       30.31S FOG
BARKSDALE AFB  CLOUDY    42  42 100 NE7       30.32R
DTN SHREVEPORT CLOUDY    42  39  89 N8        30.32F

$$

LAZ014-016-021200-
NORTHEAST LOUISIANA

CITY           SKY/WX    TMP DP  RH WIND       PRES   REMARKS
MONROE         CLOUDY    43  42  97 N7        30.34R
TALLULAH       CLOUDY    44  43  96 N15       30.31S FOG

$$



USA.gov is the U.S. government's official web portal to all federal, state and local government web resources and services.